Location: ?????
(60.5815°N, 46.9291°E)
Time: 12:54:32
(UTC+00:00)

Daily predictions for brighter satellites

Satellite Brightness Start Highest point End
(mag) Time Altitude Azimuth Time Altitude Azimuth Time Altitude Azimuth
RESURS DK-1 4.0 13:42:20 10° WNW 13:45:44 23° N 13:49:08 10° NE
Cosmos 1892 3.6 13:42:36 10° N 13:46:04 29° ENE 13:49:31 10° SE
Cosmos 1758 4.1 13:43:10 10° SSW 13:47:13 59° WNW 13:51:18 10° N
Cosmos 1486 Rocket 4.1 13:42:16 10° NNW 13:47:37 67° NE 13:52:56 10° SE
Cosmos 2297 4.4 13:42:22 10° WSW 13:47:50 49° NW 13:53:20 10° NE
H-2A R/B 2.3 13:44:46 10° NNE 13:48:49 44° E 13:52:46 10° S
Meteor 2-21 Rocket 4.5 13:43:22 10° NNW 13:49:36 73° ENE 13:55:45 10° SSE
Cosmos 304 Rocket 3.8 13:44:57 10° SSW 13:49:44 77° ESE 13:54:33 10° NE
COSMO-SKYMED 1 4.1 13:46:58 10° NE 13:49:45 16° E 13:52:32 10° SE
Envisat 3.4 13:47:04 10° S 13:52:09 71° WSW 13:57:16 10° NNW
Meteor 2-10 4.2 13:47:08 10° SSW 13:52:10 76° WNW 13:57:17 10° NNE
Cosmos 1908 3.3 13:48:37 10° S 13:52:25 60° E 13:56:17 10° NNE
Radarsat Rocket 4.4 13:46:57 10° SSE 13:52:48 70° WSW 13:58:43 10° NNW
Landsat 5 3.4 13:49:21 10° NNE 13:53:09 54° ESE 13:57:02 10° S
Cosmos 1939 Rocket 3.3 13:49:53 10° SE 13:53:32 38° ENE 13:57:10 10° N
Cosmos 1697 Rocket 4.4 13:52:38 10° ESE 13:53:50 11° E 13:55:04 10° E
Cosmos 1825 Rocket 3.7 13:51:54 10° NNW 13:56:23 88° WSW 14:00:49 10° SSE
Cosmos 1503 Rocket 4.1 13:52:37 10° NNW 13:57:46 54° NE 14:02:55 10° SE
Cosmos 2263 4.4 13:54:57 10° SW 14:00:45 84° NW 14:06:31 10° NE
Cosmos 1825 3.4 13:58:56 10° N 14:02:01 23° ENE 14:05:04 10° ESE
CZ-4B R/B 2.4 14:01:19 10° NE 14:04:03 24° E 14:06:43 10° SSE
Cosmos 1300 3.4 14:00:38 10° SSE 14:04:04 33° E 14:07:32 10° NNE
Cosmos 1400 Rocket 4.0 14:01:12 10° SE 14:04:29 24° E 14:07:45 10° NE
ERS-2 3.0 14:01:49 10° NE 14:05:03 29° E 14:08:16 10° SSE
Cosmos 2056 Rocket 4.0 14:00:32 10° SW 14:05:38 59° NW 14:10:43 10° NNE
NOAA 11 4.2 14:01:17 10° SSE 14:06:43 77° ENE 14:12:10 10° NNW
Cosmos 2279 Rocket 4.4 14:03:04 10° SSW 14:09:18 70° WNW 14:15:32 10° NNE
Helios 1A Rocket 3.3 14:06:19 10° SE 14:10:13 43° ENE 14:14:07 10° N
Cosmos 1354 Rocket 4.1 14:05:18 10° NNW 14:10:31 58° NE 14:15:43 10° SE
Cosmos 2297 Rocket 2.6 14:05:00 10° NW 14:10:40 68° SW 14:16:17 10° SSE
YAOGAN 1 3.2 14:06:52 10° SE 14:10:49 35° ENE 14:14:47 10° N
Timation 1 Rocket 4.4 14:05:00 10° NW 14:11:02 69° NE 14:17:03 10° SE
In-Cosmos 22 Rocket 4.1 14:07:09 10° NNW 14:12:30 67° ENE 14:17:54 10° SSE
Cosmos 44 4.3 14:09:01 10° S 14:12:56 28° ESE 14:16:35 12° ENE
Cosmos 1340 2.6 14:09:46 10° NNW 14:13:34 70° ENE 14:17:20 10° SSE
Cosmos 2369 Rocket 2.7 14:09:00 10° WSW 14:14:40 63° NW 14:20:23 10° NE
CORIOLIS 4.5 14:11:02 10° SSE 14:16:24 73° WSW 14:21:49 10° NNW
Aureole 3 3.9 14:14:05 10° SE 14:16:28 22° E 14:18:56 10° NE
Okean O Rocket 2.2 14:12:49 10° S 14:17:08 61° WSW 14:21:28 10° NNW
SL-16 R/B 4.2 14:12:53 10° NNE 14:18:04 29° NW 14:23:17 10° W
Cosmos 2228 3.1 14:14:24 10° S 14:18:35 56° E 14:22:50 10° NNE
Cosmos 1726 Rocket 3.8 14:14:45 10° SSE 14:18:56 46° E 14:23:12 10° NNE
Cosmos 2058 3.2 14:15:13 10° N 14:19:10 42° ENE 14:23:05 10° SE
Cosmos 1346 Rocket 3.0 14:15:54 10° N 14:19:47 48° ENE 14:23:41 10° SE
CZ-2D R/B 3.4 14:16:20 10° SE 14:20:01 48° ENE 14:23:43 10° N
Resurs 01 Rocket 3.7 14:19:08 10° NE 14:20:07 11° NE 14:21:07 10° NNE
Cosmos 2151 4.1 14:17:39 10° N 14:21:06 24° ENE 14:24:18 11° ESE
CZ-4 R/B 1.6 14:17:45 10° SE 14:21:24 42° ENE 14:25:03 10° N
Cosmos 1452 Rocket 3.6 14:16:18 10° SSW 14:21:36 89° WNW 14:26:56 10° NNE
SL-4 R/B 3.8 14:19:07 10° SW 14:21:44 20° S 14:24:28 10° SE
NOSS 3-4 (A) 3.7 14:16:05 10° WNW 14:22:39 88° NNE 14:30:01 10° ESE
NOSS 3-4 (C) 3.7 14:16:11 10° WNW 14:22:46 88° NNE 14:30:07 10° ESE
EP 3 4.1 14:21:37 10° W 14:23:32 47° NNW 14:24:41 21° NE
Cosmos 1553 Rocket 4.4 14:18:46 10° SSE 14:24:30 39° E 14:30:12 10° NNE
CZ-2C R/B 3.4 14:20:01 10° SE 14:25:30 51° ENE 14:30:46 10° NNW
Cosmos 2227 4.5 14:21:59 10° NW 14:27:31 51° NE 14:32:42 11° ESE
Cosmos 1356 Rocket 4.0 14:23:58 10° SSW 14:28:14 62° WNW 14:32:32 10° NNE
Genesis I 3.7 14:28:02 10° W 14:31:48 48° N 14:34:37 17° ENE
Cosmos 1953 3.6 14:28:35 10° SW 14:32:23 42° WNW 14:36:13 10° N
Cosmos 371 Rocket 4.4 14:27:56 10° WSW 14:32:35 43° NW 14:37:16 10° NNE
NOSS 2-1 (C) 3.2 14:30:54 10° WSW 14:34:23 85° NNW 14:37:33 17° ENE
Cosmos 1606 Rocket 3.5 14:30:55 10° S 14:35:19 73° E 14:39:46 10° NNE
SL-08 R/B 4.4 14:29:47 10° NNW 14:36:02 78° ENE 14:42:10 10° SSE
Ariane Rocket 4.0 14:33:16 15° E 14:36:24 27° NE 14:40:38 10° N
Meteor 2-10 Rocket 4.2 14:32:41 10° SSE 14:37:08 29° E 14:41:28 10° NNE
Cosmos 1315 Rocket 4.1 14:35:09 10° SE 14:38:08 21° E 14:39:57 16° NE
SKYMED 2 4.1 14:34:21 10° NNE 14:38:22 35° E 14:42:22 10° SSE
NOSS 2-1 (D) 3.2 14:36:10 10° WSW 14:39:40 82° NNW 14:42:41 18° ENE
Cosmos 1943 Rocket 3.2 14:35:58 10° W 14:41:12 41° NNW 14:46:26 10° NE
USA 215 3.5 14:35:28 14° E 14:41:16 68° S 14:47:48 10° W
Aureole 3 Rocket 3.8 14:36:56 10° SSE 14:41:33 54° E 14:48:04 10° NNE
Cosmos 1745 Rocket 4.0 14:35:57 10° NNW 14:42:14 68° ENE 14:48:33 10° SSE
Cosmos 2219 4.5 14:38:22 10° NW 14:43:50 45° WSW 14:49:16 10° S
Cosmos 292 Rocket 3.9 14:39:45 10° SSW 14:44:27 57° ESE 14:49:14 10° NE
ATLAS 2AS CENTAUR R/B 2.9 14:36:52 10° WNW 14:44:43 89° NNE 14:51:22 13° ESE
Cosmos 1726 4.4 14:42:13 10° WSW 14:45:21 25° WNW 14:48:29 10° N
SeaSat 1 2.5 14:41:02 12° ESE 14:45:36 60° NE 14:50:30 10° NW
MOS 1 Rocket 4.4 14:42:45 10° NE 14:46:23 22° E 14:50:10 10° SE
H-2A R/B 2.3 14:41:29 10° SE 14:46:46 53° ENE 14:52:05 10° NNW
CZ-4C R/B 4.1 14:44:23 10° N 14:47:29 42° WNW 14:50:39 10° SW
Cosmos 1441 Rocket 4.3 14:45:35 10° N 14:48:49 25° NE 14:49:35 23° ENE
COSMOS 2455 3.4 14:43:27 10° WNW 14:49:18 46° N 14:53:27 19° ENE
Meteor 2-3 Rocket 4.3 14:45:31 10° N 14:50:48 37° ENE 14:54:57 16° ESE
ATLAS 5 CENTAUR R/B 2.0 14:46:18 10° W 14:50:50 70° NNW 14:54:31 20° ENE
Cosmos 1386 Rocket 4.5 14:44:54 10° NNW 14:51:21 73° ENE 14:57:43 10° SSE
Cosmos 2082 4.1 14:45:40 10° NW 14:51:23 70° SW 14:57:06 10° SSE
Cosmos 1455 3.1 14:48:19 10° SSE 14:51:30 26° E 14:53:32 17° NE
Okean-O 2.6 14:49:34 10° SSE 14:54:00 83° ENE 14:58:29 10° NNW
Cosmos 1331 Rocket 3.9 14:49:05 10° SSW 14:54:14 77° ESE 14:59:26 10° NE
Cosmos 2278 Rocket 3.5 14:52:41 10° WNW 14:57:36 29° N 15:01:18 15° NE
Lacrosse 5 2.2 14:53:37 10° W 14:58:36 59° S 15:01:48 22° ESE
ADEOS Rocket 3.5 14:53:54 10° NNE 15:00:04 69° WNW 15:06:56 10° SW
Cosmos 968 Rocket 4.4 14:55:21 10° NW 15:00:26 51° WSW 15:05:26 10° S
GEOS 3 Rocket 3.9 14:55:11 10° SE 15:00:34 71° SW 15:06:00 10° WNW
ARGOS 3.3 14:55:36 10° SE 15:00:52 53° ENE 15:06:10 10° NNW
OBJECT-B 3.2 15:02:35 12° NNE 15:02:35 12° NNE 15:03:10 10° NNE
Cosmos 1656 Rocket 4.3 14:56:11 10° WSW 15:01:43 54° NW 15:07:20 10° NE
Cosmos 1656 4.0 14:58:19 10° S 15:03:34 43° ESE 15:07:45 16° NE
Cosmos 1844 Rocket 3.4 15:00:17 10° NW 15:05:34 37° NNE 15:08:21 24° ENE
Cosmos 1408 2.6 15:03:02 10° NNW 15:06:43 84° WSW 15:10:23 10° S
Cosmos 1709 Rocket 4.0 15:05:22 10° NNW 15:11:45 66° ENE 15:18:07 10° SSE
GENESIS II 4.3 15:07:54 10° SW 15:11:54 63° SE 15:13:31 33° ENE
SL-08 RB Rocket 4.0 15:09:57 25° ESE 15:12:10 44° ENE 15:16:29 10° N
Cosmos 2058 Rocket 3.0 15:08:30 10° S 15:13:01 85° ESE 15:17:35 10° NNE
Cosmos 2369 4.5 15:09:14 10° SSE 15:14:04 29° ESE 15:15:14 27° E
Cosmos 1777 Rocket 3.9 15:08:58 10° NNW 15:14:12 73° NE 15:18:02 19° SE
CZ-4C R/B 2.7 15:07:48 10° WNW 15:14:13 84° NNE 15:19:15 23° ESE
Cosmos 2227 Rocket 3.8 15:09:45 10° NW 15:14:53 36° WSW 15:19:59 10° S
Cosmos 1076 Rocket 3.4 15:11:46 10° NNW 15:16:04 90° SSW 15:20:19 10° SSE
ERBS 3.1 15:13:46 10° W 15:16:57 41° S 15:17:55 32° SSE
Cosmos 1689 Rocket 1.9 15:17:47 62° ESE 15:17:47 62° ESE 15:20:39 10° S
Cosmos 2263 Rocket 2.1 15:12:04 10° NW 15:17:48 77° NE 15:21:42 21° SE
HJ-1C 3.3 15:16:24 29° SE 15:17:56 66° ENE 15:21:19 10° NNW
SJ 16-02 2.1 15:14:50 10° NNW 15:18:55 34° NE 15:19:45 31° ENE
Terra 4.0 15:20:50 10° NNE 15:21:07 10° NNE 15:21:55 10° NNE
Cosmos 1818 3.8 15:16:22 10° WSW 15:21:49 67° NNW 15:25:06 24° ENE
Cosmos 1892 3.8 15:18:12 10° NNW 15:21:57 46° W 15:25:40 10° S
CSL-04 Rocket 3.6 15:16:29 10° SSE 15:22:02 85° ENE 15:27:33 10° NNW
Cosmos 1844 4.4 15:18:04 10° NW 15:23:17 39° NNE 15:25:24 28° ENE
H-2A R/B 3.5 15:20:54 10° N 15:24:47 37° WNW 15:28:35 10° SW
Cosmos 1110 Rocket 4.2 15:19:39 10° SW 15:24:53 70° NW 15:30:06 10° NNE
RESURS DK-1 3.6 15:21:14 10° NW 15:24:54 28° NNE 15:25:46 26° NE
Cosmos 2074 Rocket 4.3 15:20:05 10° N 15:26:00 43° ENE 15:28:40 28° ESE
Cosmos 1633 3.8 15:23:19 10° N 15:25:25 25° NNE 15:25:25 25° NNE
COSMO-SKYMED 1 2.4 15:22:16 10° NNE 15:26:39 80° ESE 15:31:01 10° SSW
Cosmos 1302 Rocket 3.9 15:21:32 10° SSW 15:26:49 78° ESE 15:31:56 11° NE
Cosmos 1939 Rocket 4.4 15:24:52 10° SSW 15:28:32 36° W 15:32:10 10° NNW
SAR-Lupe-4 3.6 15:27:41 10° NNE 15:31:18 77° WNW 15:34:53 10° SSW
NOSS 2-1 (E) 3.6 15:29:25 10° W 15:33:04 64° N 15:34:32 38° ENE
SJ-6B 3.3 15:33:56 42° ENE 15:33:58 42° ENE 15:37:53 10° N
Cosmos 1697 Rocket 3.0 15:31:08 10° S 15:36:24 42° ESE 15:37:53 35° ENE
CZ-4B R/B 2.6 15:33:21 10° N 15:36:28 41° WNW 15:39:30 10° SW
Cosmos 1898 Rocket 4.1 15:32:38 10° NNW 15:37:41 41° NE 15:38:52 36° ENE
Cosmos 1825 2.6 15:34:07 10° NNW 15:37:54 63° W 15:41:39 10° S
ERS-2 3.2 15:35:15 10° N 15:38:45 44° WNW 15:42:15 10° SW
Cosmos 1300 4.1 15:36:05 10° SW 15:39:41 39° WNW 15:43:19 10° N
EO 1 Delta rocket 4.3 15:34:47 10° NNE 15:39:38 41° E 15:39:38 41° E
Cosmos 1400 Rocket 3.3 15:36:36 10° SSW 15:40:39 61° WNW 15:44:41 10° NNE
S3M 3.8 15:34:55 10° S 15:41:03 77° E 15:47:17 10° NNE
NOSS 7 (H) 4.3 15:40:52 10° WNW 15:44:02 90° WNW 15:44:14 79° ESE
Cosmos 2315 Rocket 4.1 15:38:44 10° SSE 15:44:41 51° E 15:50:40 10° NNE
YAOGAN 1 3.5 15:42:39 10° S 15:46:52 48° W 15:51:06 10° NNW
Cosmos 1766 Rocket 3.5 15:44:02 10° N 15:48:30 63° ENE 15:49:10 55° ESE
Meteor 2-1 Rocket 4.0 15:43:47 10° S 15:49:17 76° ESE 15:54:53 10° NNE
Okean 3 Rocket 3.4 15:46:59 10° NNW 15:51:23 69° ENE 15:52:03 58° SE
SPOT 3 Rocket 3.9 15:51:40 41° ENE 15:52:05 42° ENE 15:57:00 10° NNW
Cosmos 44 3.1 15:48:57 10° SW 15:53:40 85° SE 15:55:01 49° ENE
Cosmos 1812 Rocket 3.4 15:49:29 10° S 15:53:53 71° E 15:58:14 10° NNE
Resurs 01 Rocket 2.8 15:56:30 29° NNE 15:56:30 29° NNE 15:59:25 10° N
CZ-4 R/B 3.0 15:53:02 10° SSW 15:56:33 33° W 16:00:05 10° NNW
Aureole 3 4.4 15:55:27 10° SW 15:58:11 32° WNW 16:01:05 10° N
Cosmos 2151 3.1 15:54:38 10° NNW 15:58:52 72° W 16:00:54 29° S
PSLV R/B 4.2 15:55:21 10° NNE 15:59:33 69° WNW 16:03:41 10° SSW
Cosmos 2369 Rocket 3.6 15:54:34 10° W 15:59:43 33° NNW 16:03:09 18° NE
Cosmos 1980 Rocket 3.4 15:54:55 10° S 15:57:31 25° SSE 15:57:31 25° SSE
SL-4 R/B 4.2 15:58:38 10° SW 16:00:24 13° SSW 16:00:57 13° SSW
MetOp-A 4.0 15:59:00 43° SE 16:00:44 71° ENE 16:06:07 10° NNW
ARIANE 5 R/B 4.2 16:02:29 22° NNE 16:02:29 22° NNE 16:04:54 10° N
Meteor 2-15 Rocket 4.4 15:56:06 10° SSW 16:02:17 89° ESE 16:08:29 10° NNE
Cosmos 1992 Rocket 3.8 15:58:13 10° SSW 16:03:25 70° ESE 16:05:12 41° NE
CZ-2C R/B 4.3 15:59:58 10° S 16:05:28 46° W 16:10:47 10° NNW
CRYOSAT 2 4.5 16:02:16 10° N 16:07:09 74° W 16:12:00 10° SSW
Cosmos 2154 Rocket 4.1 16:03:28 10° N 16:09:34 52° ENE 16:10:23 49° E
Cosmos 1553 Rocket 4.4 16:03:25 10° SSW 16:09:41 63° WNW 16:15:53 10° N
Genesis I 3.7 16:06:02 10° WNW 16:09:29 51° N 16:09:29 51° N
Cosmos 1315 Rocket 3.0 16:10:18 10° SSW 16:14:17 70° WNW 16:15:47 37° N
Ariane Rocket 2.9 16:13:29 50° SSE 16:14:54 90° NNE 16:20:03 10° NNW
Meteor 2-10 Rocket 3.8 16:13:43 10° SSW 16:18:53 66° WNW 16:23:57 10° NNE
Cosmos 220 Rocket 4.0 16:15:01 10° SSW 16:19:08 78° SW 16:19:08 78° SW
Cosmos 990 Rocket 3.9 16:14:23 10° NNW 16:19:39 65° NE 16:19:49 65° ENE
Cosmos 2360 4.2 16:17:17 10° SSW 16:22:32 60° SE 16:22:32 60° SE
SeaSat 1 3.4 16:20:50 25° S 16:23:20 43° WSW 16:28:04 10° NW
Cosmos 1408 Rocket 3.9 16:19:58 10° NNW 16:23:37 56° N 16:23:37 56° N
USA 215 3.6 16:22:49 39° SSE 16:24:53 53° SSW 16:31:17 10° W
Cosmos 1441 Rocket 3.8 16:21:16 10° NNW 16:24:39 54° WNW 16:24:39 54° WNW
NOSS 2-1 (C) 3.8 16:21:25 10° WNW 16:24:52 58° NNW 16:24:52 58° NNW
MOS 1 Rocket 3.2 16:20:34 10° NNE 16:25:11 84° WNW 16:30:05 10° SSW
Cosmos 1943 Rocket 3.6 16:21:31 10° WNW 16:26:17 28° N 16:28:10 23° NNE
H-2A R/B 3.3 16:21:12 10° SSW 16:26:23 42° W 16:31:35 10° NNW
Cosmos 1455 3.1 16:23:13 10° SW 16:26:56 49° WNW 16:28:40 27° N
NOSS 3-3 (A) 4.0 16:22:40 10° SSW 16:28:38 57° SE 16:28:42 57° SE
NOSS 3-3 (C) 4.1 16:22:47 10° SSW 16:28:45 56° SE 16:28:46 56° SE
IRS-1A Rocket 4.3 16:27:59 41° S 16:30:01 75° WSW 16:35:34 10° NNW
NOSS 2-1 (D) 3.9 16:26:41 10° WNW 16:30:00 56° NNW 16:30:00 56° NNW
OBJECT-B 3.5 16:35:45 15° NNW 16:35:45 15° NNW 16:36:24 10° NNW
MOS 1 4.3 16:31:54 45° S 16:33:44 77° WSW 16:39:26 10° NNW
Meteor 2-3 Rocket 4.1 16:28:46 10° NNW 16:34:26 65° W 16:37:17 30° S
ATLAS 2AS CENTAUR R/B 3.6 16:28:07 10° WNW 16:35:19 46° SW 16:38:50 27° S
Resurs 1-3 4.3 16:37:00 47° N 16:37:00 47° N 16:40:11 10° NNW
ATLAS 5 CENTAUR R/B 2.0 16:31:04 10° WNW 16:35:55 69° NNE 16:36:03 69° NNE
COSMOS 2455 2.8 16:29:58 10° NW 16:36:03 69° NNE 16:36:35 65° ENE
CZ-2C R/B 3.9 16:33:40 10° NNE 16:36:23 29° NNE 16:36:23 29° NNE
Lacrosse 5 2.7 16:36:25 10° W 16:41:00 39° SSW 16:41:00 39° SSW
Cosmos 1610 Rocket 4.4 16:34:49 10° NNW 16:41:15 75° ENE 16:41:53 69° ESE
ARGOS 4.3 16:36:11 10° SSW 16:41:20 42° W 16:46:31 10° NNW
Cosmos 2278 Rocket 2.9 16:37:44 10° NW 16:43:06 40° NNE 16:43:08 40° NNE
Cosmos 1937 Rocket 3.7 16:38:50 10° NNW 16:43:19 59° N 16:43:19 59° N
Cosmos 1656 4.0 16:41:31 10° SW 16:47:08 64° NW 16:49:12 39° NNE
Cosmos 1295 Rocket 4.3 16:42:56 10° NNW 16:48:48 70° NE 16:48:48 70° NE
Cosmos 1844 Rocket 2.6 16:44:26 10° NW 16:50:00 82° N 16:50:00 82° N
Cosmos 2184 Rocket 4.1 16:47:31 10° NNW 16:53:50 74° W 16:55:37 49° SSW
ERS-1 Rocket 4.4 16:58:50 27° NNE 16:58:50 27° NNE 17:01:34 10° N
Terra 3.8 16:59:43 20° NNE 16:59:43 20° NNE 17:01:34 10° N
Cosmos 2369 3.7 16:52:02 10° SW 16:57:12 74° SW 16:57:12 74° SW
SJ 16-02 2.3 16:53:24 10° NW 16:56:44 46° WNW 16:56:44 46° WNW
Cosmos 2263 Rocket 3.6 16:56:19 10° NW 17:01:23 34° WSW 17:03:25 26° SSW
CZ-4C R/B 3.3 16:56:13 10° WNW 17:02:45 53° SW 17:04:27 45° S
RESURS DK-1 4.1 16:59:22 10° NW 17:01:39 31° NW 17:01:39 31° NW
Cosmos 1818 4.1 17:00:38 10° WNW 17:05:44 54° N 17:05:44 54° N
Cosmos 1844 3.8 17:02:25 10° NW 17:07:17 68° NW 17:07:17 68° NW
Cosmos 2074 Rocket 4.4 17:05:37 10° NNW 17:11:43 58° W 17:13:23 44° SW
Cosmos 2327 Rocket 4.5 17:09:12 10° NNW 17:15:19 73° W 17:15:25 73° WSW
Cosmos 1898 Rocket 4.1 17:14:49 10° NW 17:19:10 55° WNW 17:19:10 55° WNW
Cosmos 1697 Rocket 3.1 17:14:38 10° SW 17:19:40 61° WNW 17:19:40 61° WNW
Cosmos 2341 Rocket 4.2 17:18:12 10° NNW 17:23:21 62° N 17:23:21 62° N
SPOT 3 Rocket 4.4 17:32:21 47° WNW 17:32:21 47° WNW 17:36:36 10° NNW
Resurs 01 Rocket 3.5 17:34:04 27° NW 17:34:04 27° NW 17:36:12 10° NNW
Cosmos 1980 Rocket 4.3 17:38:09 10° SW 17:39:22 17° SW 17:39:22 17° SW
Cosmos 2369 Rocket 3.6 17:40:11 10° NW 17:44:55 31° N 17:44:55 31° N
Cosmos 1943 Rocket 3.8 18:06:21 10° NW 18:09:40 29° NNW 18:09:40 29° NNW
CZ-2C R/B 4.2 18:14:13 10° N 18:17:53 32° NNW 18:17:53 32° NNW
ATLAS 5 CENTAUR R/B 4.0 18:15:36 10° WNW 18:17:34 25° WNW 18:17:34 25° WNW
COSMOS 2455 4.2 18:16:06 10° NW 18:19:43 34° WNW 18:19:43 34° WNW
Cosmos 2278 Rocket 3.8 18:22:04 10° NW 18:24:58 32° NW 18:24:58 32° NW
Terra 4.4 18:38:36 17° NNW 18:38:36 17° NNW 18:39:45 10° NNW
SJ 16-02 4.5 18:33:27 10° WNW 18:33:43 11° WNW 18:33:43 11° WNW
Cosmos 2369 Rocket 4.4 19:24:50 10° NW 19:26:42 21° NNW 19:26:42 21° NNW
SL-16 R/B 4.4 21:08:45 25° N 21:08:45 25° N 21:11:21 10° NNW
Cosmos 2322 Rocket 4.4 21:49:19 21° NE 21:49:19 21° NE 21:51:35 10° NE
ADEOS II 4.3 22:17:12 10° NNE 22:19:33 21° NE 22:19:33 21° NE
SL-16 R/B 4.0 22:26:11 27° NE 22:26:11 27° NE 22:29:44 10° ENE
COSMOS 2428 4.5 22:38:12 28° NNE 22:38:12 28° NNE 22:41:42 10° NE
Cosmos 2333 Rocket 4.0 22:39:05 28° NNE 22:39:05 28° NNE 22:42:37 10° NE
Cosmos 2237 Rocket 3.9 22:41:41 28° NNE 22:41:41 28° NNE 22:44:42 10° NE
Resurs 1-4 Rocket 4.0 22:36:25 10° NNE 22:38:48 27° NNE 22:38:48 27° NNE
Cosmos 2360 Rocket 3.9 22:47:07 28° NNE 22:47:07 28° NNE 22:51:15 10° ENE
Cosmos 1980 Rocket 4.0 23:02:29 24° E 23:02:29 24° E 23:04:47 10° ESE
IDEFIX/ARIANE 42P 4.5 22:55:38 10° NE 22:59:36 24° E 22:59:36 24° E
CZ-2D R/B 3.7 23:01:52 10° NNE 23:04:25 30° NNE 23:04:25 30° NNE
SL-16 R/B 3.6 23:09:25 34° NNE 23:09:25 34° NNE 23:12:55 10° NE
Cosmos 2219 Rocket 3.8 23:11:30 29° N 23:11:30 29° N 23:16:00 10° NE
Cosmos 2322 Rocket 3.5 23:31:09 33° N 23:32:09 36° NNE 23:37:23 10° E
ARIANE 5 R/B 3.7 23:30:13 10° NNE 23:34:09 38° ENE 23:34:09 38° ENE
Lacrosse 4 Rocket 4.1 23:39:17 14° E 23:39:17 14° E 23:40:46 10° ENE
ADEOS Rocket 3.5 23:34:14 10° SE 23:39:34 52° ENE 23:45:17 10° NNW
USA 234 4.1 23:36:53 10° ENE 23:42:51 38° SE 23:42:51 38° SE
Cosmos 1867 4.2 23:51:40 55° NE 23:51:40 55° NE 23:55:56 10° ENE
